Regional Weather Roundup
Issued by NWS Upton, NY

Current Version | Previous Version | Text Only | Print | Product List | Glossary Off
Versions: 1 2 3 4 5 6 7 8 9 10 11 12 13 14 15 16 17 18 19 20 21 22 23 24 25 26 27 28 29 30 31 32 33 34 35 36 37 38 39 40 41 42 43 44 45 46 47 48 49
000 ASUS41 KOKX 062105 RWROKX REGIONAL WEATHER ROUNDUP NATIONAL WEATHER SERVICE NEW YORK NY 400 PM EST FRI MAR 06 2015 NOTE: "FAIR" INDICATES FEW OR NO CLOUDS BELOW 12,000 FEET WITH NO SIGNIFICANT WEATHER AND/OR OBSTRUCTIONS TO VISIBILITY. NYZ071-072-176-178-NJZ106-104-062200- NEW YORK CITY METRO AREA CITY SKY/WX TMP DP RH WIND PRES REMARKS CENTRAL PARK SUNNY 26 3 37 VRB6 30.45F WCI 19 LAGUARDIA APRT MOSUNNY 27 2 34 CALM 30.44F KENNEDY INTL MOSUNNY 23 8 52 S7 30.46F WCI 15 NEWARK/LIBERTY MOSUNNY 27 6 41 SW5 30.44F WCI 22 BRNX BOT. GARD N/A N/A N/A N/A SW9 30.43F TETERBORO SUNNY 27 2 34 SE3 30.43F $$ NYZ177-179-078>081-062200- LONG ISLAND NEW YORK CITY SKY/WX TMP DP RH WIND PRES REMARKS FARMINGDALE SUNNY 27 1 32 N6 30.44F WCI 20 ISLIP SUNNY 27 -4 26 CALM 30.42F SHIRLEY SUNNY 26 -3 28 CALM 30.45F WESTHAMPTON SUNNY 24 -1 33 CALM 30.45F MONTAUK POINT N/A 24 6 46 CALM 30.45F $$ NYZ052-065-067-062200- HUDSON VALLEY CITY SKY/WX TMP DP RH WIND PRES REMARKS WHITE PLAINS SUNNY 24 1 36 NW3 30.39F NEWBURGH SUNNY 25 0 33 SW7 30.40F WCI 17 MONTGOMERY SUNNY 25 -1 32 SW7 30.37F WCI 17 POUGHKEEPSIE SUNNY 27 -6 23 S6 30.40F WCI 20 ALBANY MOSUNNY 26 -1 31 CALM 30.39F $$ NJZ001-105-106-008-010-013-015-019>022-104-062200- NEW JERSEY CITY SKY/WX TMP DP RH WIND PRES REMARKS NEWARK/LIBERTY MOSUNNY 27 6 41 SW5 30.44F WCI 22 TETERBORO SUNNY 27 2 34 SE3 30.43F CALDWELL SUNNY 27 3 35 VRB5 30.43F WCI 22 MORRISTOWN SUNNY 27 7 43 SW8 30.44F WCI 18 SOMERVILLE SUNNY 26 0 32 CALM 30.43F SUSSEX SUNNY 25 1 35 S6 30.39F WCI 18 ANDOVER N/A 24 1 36 S5 30.39F WCI 18 TRENTON SUNNY 24 4 42 VRB5 30.45F WCI 18 MILLVILLE SUNNY 24 32 100 NW7 30.48S WCI 16 ATLANTIC CITY MOSUNNY 23 14 68 E6 30.47F WCI 16 WRIGHTSTOWN SUNNY 24 6 46 NW1 30.44F TOMS RIVER MOSUNNY 25 12 58 CALM 30.45S BELMAR SUNNY 25 5 42 W3 30.45S $$ PAZ047>061-062-071-062200- EASTERN PENNSYLVANIA CITY SKY/WX TMP DP RH WIND PRES REMARKS PHILADELPHIA SUNNY 25 9 50 S6 30.48F WCI 18 ALLENTOWN SUNNY 23 4 44 SW6 30.43F WCI 16 SCRANTON SUNNY 24 3 40 W8 30.36F WCI 15 $$ CTZ002-004>006-009-010-012-RIZ004-006-007-MAZ004-011-015-062200- SOUTHERN NEW ENGLAND IN CT CITY SKY/WX TMP DP RH WIND PRES REMARKS BRADLEY INTL SUNNY 27 2 34 SE12 30.38F WCI 17 HARTFORD SUNNY 26 -1 31 S12 30.41F WCI 16 DANBURY SUNNY 24 -5 27 SW7 30.40F WCI 16 WTRBRY/OXFORD SUNNY 25 -4 28 W7 30.38F WCI 17 BRIDGEPORT SUNNY 23 10 57 SW9 30.44F WCI 13 MERIDEN SUNNY 26 4 38 S9 30.41F WCI 17 NEW HAVEN SUNNY 22 7 52 S9 30.43F WCI 12 CHESTER FAIR 25 5 42 S6 30.40F WCI 18 GROTON SUNNY 20 2 45 SW9 30.44S WCI 9 WILLIMANTIC SUNNY 26 -7 23 NW7 30.40F WCI 18 IN RI CITY SKY/WX TMP DP RH WIND PRES REMARKS PROVIDENCE MOSUNNY 22 0 38 S6 30.42F WCI 14 BLOCK ISLAND SUNNY 21 7 53 S6 30.43S WCI 14 WESTERLY SUNNY 23 6 48 SW5 30.44F WCI 17 IN MA CITY SKY/WX TMP DP RH WIND PRES REMARKS BOSTON MOSUNNY 23 8 52 SE14 30.41F WCI 11 WORCESTER SUNNY 24 -8 24 W10 30.31F WCI 14 WESTFIELD SUNNY 27 -1 30 S10 30.37F WCI 17 PROVINCETOWN SUNNY 21 10 63 SW5 30.43F WCI 15 NANTUCKET MOSUNNY 25 12 58 N6 30.43F WCI 18 $$ ANZ330-335-338-340-345-350-353-355-062200- COASTAL MARINE OBSERVATIONS STATION/POSITION TIME SKY/WX TEMP WIND PRES VSBY WAVE AIR SEA DIR/SP/G HT/PER (UTC) (F) (DEG/KT/KT) (MB) (MI) (FT/S) NY HARB ENTRANCE 2100 23 38 280/ 4/ 4 1031.6 2/ 9 4S FIRE IS NOT AVBL 20S FIRE ISLAND 2000 36 1032.6 3/ 6 23SW MTP 2100 N/A 2/ 5 HUDSON CANYON NOT AVBL EXECUTION ROCKS NOT AVBL WESTERN LI SOUND NOT AVBL CENTRAL LI SOUND NOT AVBL EASTERN LI SOUND NOT AVBL ROBBINS REEF 2100 23 160/ 8/ 9 1029.9 $$ >>>>>>>>>>>>>>>>>>>>>>>>>>>> KEY <<<<<<<<<<<<<<<<<<<<<<<<<<< > < > SKY/WX - SKY CONDITION/PRESENT WEATHER < > TMP - TEMPERATURE IN FAHRENHEIT < > DP - DEWPOINT IN FAHRENHEIT < > RH - RELATIVE HUMIDITY IN PERCENT < > WIND - DIRECTION AND SPEED IN MPH < > PRES - MEAN SEA LEVEL PRESSURE IN INCHES OF HG < > WCI - WIND CHILL INDEX < > VSB - VISIBILITY IN MILES < > HX - HEAT INDEX < > TC - TEMPERATURE IN CELSIUS < > VRB - VARIABLE WIND DIRECTION < > < >>>>>>>>>>>>>>>>>>>>>>>>>>>> KEY <<<<<<<<<<<<<<<<<<<<<<<<<<<

USA.gov is the U.S. government's official web portal to all federal, state and local government web resources and services.